Location: Pedholt
(56.0260°N, 10.2097°E)
Time: 06:20:18
(UTC+00:00)

Cosmos 1607 - Pass Details

Date: 14 July 2020
Orbit: 912 x 990 km, 65.0° (Epoch: 14 August)

Event Time Altitude Azimuth Distance (km) Brightness Sun altitude
Exits shadow 00:20:03 - 230° (SW) 2,853 6.0 -11.5°
Reaches altitude 10° 00:20:35 10° 230° (SW) 2,659 5.8 -11.5°
Maximum altitude 00:26:50 84° 319° (NW) 970 4.0 -11.2°
Drops below altitude 10° 00:33:14 10° 49° (NE) 2,726 7.3 -11.0°
Sets 00:35:50 0° 50° (NE) 3,685 8.1 -10.9°
